EW2175 Weather Reports


time (UTC)temp
C
wind
direction
speed
KPH
gust
KPH
rain 1hr
cm
rain 24hr
cm
rain mn
cm
humidity
%
barometer
mb
20260903141504 28 212 4.8 17.7 0.00 0.00 0.00 34 1019.5
20260903140015 28 118 3.2 17.7 0.00 0.00 0.00 33 1019.6
20260903134502 28 155 4.8 19.3 0.00 0.00 0.00 33 1019.6
20260903133002 28 145 11.3 22.5 0.00 0.00 0.00 32 1019.6
20260903131501 28 171 6.4 22.5 0.00 0.00 0.00 32 1019.7
20260903130059 29 138 3.2 22.5 0.00 0.00 0.00 33 1019.5
20260903124602 28 195 6.4 20.9 0.00 0.00 0.00 35 1019.7
20260903123053 28 269 3.2 16.1 0.00 0.00 0.00 35 1019.6
20260903121554 28 284 12.9 24.1 0.00 0.00 0.00 35 1019.6
20260903120051 27 263 1.6 24.1 0.00 0.00 0.00 36 1019.8
20260903114604 27 164 4.8 19.3 0.00 0.00 0.00 36 1020.2
20260903113042 27 209 3.2 14.5 0.00 0.00 0.00 38 1020.4
20260903111548 26 227 3.2 17.7 0.00 0.00 0.00 39 1020.5
20260903110044 27 183 3.2 19.3 0.00 0.00 0.00 38 1020.8
20260903104539 27 185 9.7 17.7 0.00 0.00 0.00 38 1020.9
20260903103047 27 236 1.6 16.1 0.00 0.00 0.00 36 1021.0
20260903101543 26 198 0.0 16.1 0.00 0.00 0.00 38 1021.0
20260903100036 26 221 4.8 17.7 0.00 0.00 0.00 41 1021.2
20260903094528 25 229 8.0 20.9 0.00 0.00 0.00 42 1021.1
20260903093051 25 261 6.4 16.1 0.00 0.00 0.00 43 1021.1
20260903091522 25 180 8.0 17.7 0.00 0.00 0.00 48 1021.3
20260903090018 23 256 1.6 14.5 0.00 0.00 0.00 52 1021.4
20260903084513 23 248 1.6 11.3 0.00 0.00 0.00 54 1021.2
20260903083009 22 156 1.6 9.7 0.00 0.00 0.00 57 1021.3
20260903081510 22 217 1.6 11.3 0.00 0.00 0.00 59 1021.1
20260903080003 21 208 3.2 9.7 0.00 0.00 0.00 60 1021.5
20260903074557 20 237 1.6 8.0 0.00 0.00 0.00 62 1021.6
20260903073053 19 177 0.0 4.8 0.00 0.00 0.00 64 1021.2
20260903071616 18 78 0.0 0.0 0.00 0.00 0.00 66 1021.2
20260903070100 17 78 0.0 0.0 0.00 0.00 0.00 70 1021.2
20260903064545 16 57 0.0 0.0 0.00 0.00 0.00 73 1021.2
20260903063045 16 106 0.0 0.0 0.00 0.00 0.00 74 1021.3
20260903061544 15 107 0.0 6.4 0.00 0.00 0.00 75 1021.3
20260903060043 15 90 0.0 9.7 0.00 0.00 0.00 76 1021.4
20260903054545 15 157 0.0 0.0 0.00 0.00 0.00 76 1021.5
20260903053038 15 162 0.0 0.0 0.00 0.00 0.00 77 1021.2
20260903051538 15 162 0.0 0.0 0.00 0.00 0.00 77 1021.2
20260903050040 15 163 0.0 0.0 0.00 0.00 0.00 76 1021.0
20260903044531 15 163 0.0 0.0 0.00 0.00 0.00 76 1020.8
20260903043030 15 163 0.0 0.0 0.00 0.00 0.00 76 1020.7
20260903041529 15 163 0.0 0.0 0.00 0.00 0.00 75 1020.8
20260903040027 15 163 0.0 0.0 0.00 0.00 0.00 75 1020.8
20260903034527 16 159 0.0 0.0 0.00 0.00 0.00 73 1020.6
20260903033023 16 134 0.0 8.0 0.00 0.00 0.00 73 1020.5
20260903031522 16 87 1.6 9.7 0.00 0.00 0.00 73 1020.5
20260903030022 16 74 1.6 8.0 0.00 0.00 0.00 73 1020.6
20260903024519 16 87 1.6 9.7 0.00 0.00 0.00 73 1020.7
20260903023032 16 100 0.0 12.9 0.00 0.00 0.00 73 1020.6
20260903021518 16 84 1.6 9.7 0.00 0.00 0.00 73 1020.6
20260903020017 16 93 1.6 12.9 0.00 0.00 0.00 73 1020.6
20260903014521 16 85 1.6 14.5 0.00 0.00 0.00 73 1020.6
20260903013014 16 75 3.2 9.7 0.00 0.00 0.00 74 1020.8
20260903011521 16 70 0.0 8.0 0.00 0.00 0.00 73 1020.7
20260903010014 16 95 0.0 6.4 0.00 0.00 0.00 73 1020.7
20260903004512 17 76 1.6 11.3 0.00 0.00 0.00 73 1020.6
20260903003009 17 76 0.0 6.4 0.00 0.00 0.00 72 1020.6
20260903001515 17 89 0.0 4.8 0.00 0.00 0.00 72 1020.5
20260903000010 17 88 0.0 6.4 0.00 0.00 0.00 71 1020.5
20260902234504 17 57 0.0 4.8 0.00 0.00 0.00 71 1020.5
20260902233003 17 88 0.0 4.8 0.00 0.00 0.00 70 1020.6
20260902231501 17 88 0.0 4.8 0.00 0.00 0.00 69 1020.5
20260902230118 18 83 0.0 3.2 0.00 0.00 0.00 69 1020.5
20260902224612 18 83 0.0 4.8 0.00 0.00 0.00 69 1020.4
20260902223111 18 66 0.0 4.8 0.00 0.00 0.00 68 1020.3
20260902221604 18 65 0.0 0.0 0.00 0.00 0.00 67 1020.3
20260902220052 18 86 0.0 0.0 0.00 0.00 0.00 66 1020.2
20260902214615 19 86 0.0 6.4 0.00 0.00 0.00 65 1020.2
20260902213051 19 80 0.0 4.8 0.00 0.00 0.00 63 1020.0
20260902211552 20 96 0.0 0.0 0.00 0.00 0.00 61 1019.8
20260902210052 20 228 0.0 0.0 0.00 0.00 0.00 59 1019.9
20260902204547 20 229 0.0 0.0 0.00 0.00 0.00 58 1019.8
20260902203046 21 229 0.0 0.0 0.00 0.00 0.00 57 1019.5
20260902201557 21 229 0.0 0.0 0.00 0.00 0.00 55 1019.5
20260902200049 22 229 0.0 0.0 0.00 0.00 0.00 54 1019.4
20260902194550 22 229 0.0 0.0 0.00 0.00 0.00 53 1019.3
20260902193045 23 229 0.0 0.0 0.00 0.00 0.00 52 1019.3
20260902191545 23 229 0.0 0.0 0.00 0.00 0.00 50 1019.1
20260902190044 23 229 0.0 4.8 0.00 0.00 0.00 49 1019.0
20260902184543 24 313 0.0 0.0 0.00 0.00 0.00 50 1018.7
20260902183043 25 350 0.0 0.0 0.00 0.00 0.00 49 1018.5
20260902181544 25 350 0.0 0.0 0.00 0.00 0.00 47 1018.4
20260902180042 25 350 0.0 0.0 0.00 0.00 0.00 46 1018.3
20260902174548 26 350 0.0 0.0 0.00 0.00 0.00 45 1018.1
20260902173041 26 333 0.0 8.0 0.00 0.00 0.00 44 1018.0
20260902171543 26 352 0.0 9.7 0.00 0.00 0.00 43 1017.8
20260902170040 27 336 0.0 12.9 0.00 0.00 0.00 41 1017.6
20260902164545 28 326 8.0 14.5 0.00 0.00 0.00 37 1017.4
20260902163039 29 280 1.6 12.9 0.00 0.00 0.00 34 1017.4
20260902161538 29 319 0.0 11.3 0.00 0.00 0.00 33 1017.5
20260902160036 30 173 3.2 17.7 0.00 0.00 0.00 32 1017.6
20260902154535 30 259 0.0 6.4 0.00 0.00 0.00 32 1017.7
20260902153035 30 52 0.0 4.8 0.00 0.00 0.00 32 1017.6
20260902151532 30 217 6.4 11.3 0.00 0.00 0.00 33 1017.7
20260902150031 29 219 0.0 0.0 0.00 0.00 0.00 34 1017.7
20260902144530 29 236 0.0 0.0 0.00 0.00 0.00 34 1017.8
20260902143030 29 152 0.0 8.0 0.00 0.00 0.00 33 1017.9